Location: Newark
(40.9833°N, 0.0333°W)
Time: 19:31:07
(UTC+00:00)

ISS - Visible Passes

Search period start: 23 March 2019 00:00
Search period end: 02 April 2019 00:00
Orbit: 408 x 411 km, 51.6° (Epoch: 23 March)

Date Brightness Start Highest point End Pass type
(mag) Time Alt. Az. Time Alt. Az. Time Alt. Az.
23 Mar -3.6 19:19:13 10° WSW 19:22:30 71° NW 19:25:17 14° NE visible
23 Mar -0.5 20:57:13 10° WNW 20:58:05 14° NW 20:58:05 14° NW visible
24 Mar -1.6 20:06:00 10° WNW 20:08:42 23° NNW 20:09:57 19° N visible
25 Mar -2.2 19:14:53 10° W 19:17:54 32° NNW 19:20:56 10° NE visible
25 Mar -0.6 20:53:27 10° NW 20:54:25 13° NNW 20:54:25 13° NNW visible
26 Mar -1.2 20:02:10 10° NW 20:04:19 16° NNW 20:06:00 12° NNE visible
27 Mar -1.4 19:10:53 10° WNW 19:13:24 20° NNW 19:15:56 10° NNE visible
27 Mar -0.7 20:49:18 10° NNW 20:50:14 12° NNW 20:50:14 12° NNW visible
28 Mar -1.0 19:58:16 10° NW 19:59:58 13° N 20:01:38 10° NNE visible
29 Mar -1.1 19:07:02 10° NW 19:08:59 15° N 19:10:56 10° NNE visible
29 Mar -0.9 20:44:35 10° NNW 20:45:44 14° N 20:45:44 14° N visible
30 Mar -1.2 19:53:52 10° NNW 19:55:36 13° N 19:57:03 11° NNE visible
31 Mar -1.1 19:02:55 10° NNW 19:04:35 13° N 19:06:14 10° NNE visible
31 Mar -1.3 20:39:31 10° NNW 20:41:05 18° N 20:41:05 18° N visible
01 Apr -1.5 19:48:56 10° NNW 19:51:09 16° NNE 19:52:22 14° NE visible
01 Apr -0.2 21:25:01 10° NW 21:25:07 11° NW 21:25:07 11° NW visible
